Weather History for KJYG - September, 2012

Change the Weather History Date:

Saturday, September 15, 2012

  Actual Average Record
Temperature  
Mean Temperature 66 °F -  
Max Temperature 82 °F 71 °F 84 °F (2006)
Min Temperature 51 °F 47 °F 28 °F (2007)
Cooling Degree Days 2    
Growing Degree Days 16 (Base 50)    
Moisture  
Dew Point 36 °F    
Average Humidity 42    
Maximum Humidity 76    
Minimum Humidity 13    
Precipitation  
Precipitation 0.00 in - - ()
Sea Level Pressure  
Sea Level Pressure 30.11 in    
Wind  
Wind Speed 6 mph (South)    
Max Wind Speed 24 mph    
Max Gust Speed 31 mph    
Visibility 10 miles    
Events      
Averages and records for this station are not official NWS values.
T = Trace of Precipitation, MM = Missing Value Source: NWS Daily Summary

Daily Weather History Graph

Daily Weather History Graph

Search for Another Location

Airport or City:

Trip Planner

Search our weather history database for the weather conditions in past years. The results will help you decide how hot, cold, wet, or windy it might be!

Date:

Astronomy

Sep. 15, 2012 Rise Set
Actual Time 6:58 AM CDT 7:27 PM CDT
Civil Twilight 6:29 AM CDT 7:56 PM CDT
Nautical Twilight 5:54 AM CDT 8:30 PM CDT
Astronomical Twilight 5:19 AM CDT 9:05 PM CDT
Moon 6:30 AM CDT (9/15) 6:56 PM CDT (9/15)
Length of Visible Light 13h 27m
Length of Day
12h 29m
Waning Crescent, 0% of the Moon is Illuminated
Sep 15
Waning Crescent
Sep 15
New
Sep 22
First Quarter
Sep 29
Full
Oct 8
Last Quarter

Hourly Weather History & Observations

Time (CDT) Temp. Dew Point Humidity Pressure Visibility Wind Dir Wind Speed Gust Speed Precip Events Conditions
12:15 AM 51.8 °F 42.8 °F 71% 30.22 in 10.0 mi Calm Calm - N/A   Clear
12:35 AM 51.8 °F 42.8 °F 71% 30.21 in 10.0 mi Calm Calm - N/A   Clear
12:55 AM 51.8 °F 42.8 °F 71% 30.21 in 10.0 mi Calm Calm - N/A   Clear
1:15 AM 53.6 °F 42.8 °F 67% 30.21 in 10.0 mi Calm Calm - N/A   Clear
1:35 AM 53.6 °F 42.8 °F 67% 30.21 in 10.0 mi Calm Calm - N/A   Clear
1:55 AM 53.6 °F 44.6 °F 72% 30.21 in 10.0 mi Calm Calm - N/A   Clear
2:15 AM 53.6 °F 44.6 °F 72% 30.20 in 10.0 mi Calm Calm - N/A   Clear
2:35 AM 55.4 °F 44.6 °F 67% 30.20 in 10.0 mi Calm Calm - N/A   Clear
2:55 AM 53.6 °F 44.6 °F 72% 30.20 in 10.0 mi Calm Calm - N/A   Clear
3:15 AM 53.6 °F 44.6 °F 72% 30.19 in 10.0 mi Calm Calm - N/A   Clear
3:35 AM 53.6 °F 44.6 °F 72% 30.19 in 10.0 mi Calm Calm - N/A   Clear
4:15 AM 51.8 °F 44.6 °F 76% 30.19 in 10.0 mi Calm Calm - N/A   Clear
4:34 AM 51.8 °F 44.6 °F 76% 30.19 in 10.0 mi Calm Calm - N/A   Clear
4:55 AM 51.8 °F 44.6 °F 76% 30.19 in 10.0 mi Calm Calm - N/A   Clear
5:15 AM 51.8 °F 44.6 °F 76% 30.19 in 10.0 mi Calm Calm - N/A   Clear
5:34 AM 51.8 °F 44.6 °F 76% 30.19 in 10.0 mi Calm Calm - N/A   Clear
5:55 AM 51.8 °F 44.6 °F 76% 30.19 in 10.0 mi Calm Calm - N/A   Clear
6:15 AM 51.8 °F 44.6 °F 76% 30.19 in 10.0 mi Calm Calm - N/A   Clear
6:35 AM 51.8 °F 44.6 °F 76% 30.19 in 10.0 mi Calm Calm - N/A   Clear
6:55 AM 51.8 °F 44.6 °F 76% 30.19 in 10.0 mi Calm Calm - N/A   Clear
7:15 AM 51.8 °F 44.6 °F 76% 30.19 in 10.0 mi Calm Calm - N/A   Clear
7:35 AM 53.6 °F 44.6 °F 72% 30.19 in 10.0 mi Calm Calm - N/A   Clear
7:55 AM 53.6 °F 44.6 °F 72% 30.19 in 10.0 mi Calm Calm - N/A   Clear
8:15 AM 55.4 °F 44.6 °F 67% 30.19 in 10.0 mi South 5.8 mph - N/A   Clear
8:35 AM 57.2 °F 44.6 °F 63% 30.18 in 10.0 mi South 6.9 mph - N/A   Clear
8:55 AM 60.8 °F 44.6 °F 55% 30.18 in 10.0 mi South 5.8 mph - N/A   Clear
9:14 AM 62.6 °F 42.8 °F 48% 30.17 in 10.0 mi South 9.2 mph - N/A   Clear
9:35 AM 68.0 °F 33.8 °F 28% 30.17 in 10.0 mi SSW 15.0 mph 23.0 mph N/A   Clear
9:55 AM 69.8 °F 30.2 °F 23% 30.16 in 10.0 mi SSW 15.0 mph 25.3 mph N/A   Clear
10:15 AM 71.6 °F 28.4 °F 20% 30.15 in 10.0 mi SSW 19.6 mph 25.3 mph N/A   Clear
10:35 AM 71.6 °F 28.4 °F 20% 30.15 in 10.0 mi SSW 18.4 mph 25.3 mph N/A   Clear
10:55 AM 73.4 °F 28.4 °F 19% 30.14 in 10.0 mi SSW 16.1 mph 26.5 mph N/A   Clear
11:15 AM 75.2 °F 28.4 °F 18% 30.14 in 10.0 mi SSW 13.8 mph 31.1 mph N/A   Clear
11:35 AM 75.2 °F 30.2 °F 19% 30.13 in 10.0 mi South 13.8 mph 31.1 mph N/A   Clear
11:55 AM 77.0 °F 28.4 °F 17% 30.12 in 10.0 mi South 16.1 mph 25.3 mph N/A   Clear
12:15 PM 78.8 °F 28.4 °F 16% 30.12 in 10.0 mi SSW 12.7 mph 26.5 mph N/A   Clear
12:35 PM 78.8 °F 26.6 °F 15% 30.11 in 10.0 mi South 18.4 mph 24.2 mph N/A   Clear
12:54 PM 78.8 °F 28.4 °F 16% 30.11 in 10.0 mi South 18.4 mph 25.3 mph N/A   Clear
1:15 PM 80.6 °F 26.6 °F 14% 30.10 in 10.0 mi SSW 13.8 mph 26.5 mph N/A   Clear
1:55 PM 80.6 °F 26.6 °F 14% 30.09 in 10.0 mi South 16.1 mph 27.6 mph N/A   Clear
2:15 PM 80.6 °F 26.6 °F 14% 30.08 in 10.0 mi South 24.2 mph 27.6 mph N/A   Clear
2:34 PM 80.6 °F 24.8 °F 13% 30.08 in 10.0 mi SSW 19.6 mph 29.9 mph N/A   Clear
2:55 PM 80.6 °F 24.8 °F 13% 30.07 in 10.0 mi SSW 19.6 mph 28.8 mph N/A   Clear
3:15 PM 82.4 °F 26.6 °F 13% 30.06 in 10.0 mi South 17.3 mph 28.8 mph N/A   Clear
3:35 PM 80.6 °F 24.8 °F 13% 30.06 in 10.0 mi South 19.6 mph 27.6 mph N/A   Clear
3:55 PM 80.6 °F 24.8 °F 13% 30.06 in 10.0 mi SSW 19.6 mph 25.3 mph N/A   Clear
4:15 PM 82.4 °F 26.6 °F 13% 30.05 in 10.0 mi SSW 15.0 mph 23.0 mph N/A   Clear
4:35 PM 80.6 °F 26.6 °F 14% 30.05 in 10.0 mi SSW 16.1 mph 26.5 mph N/A   Clear
4:55 PM 80.6 °F 26.6 °F 14% 30.04 in 10.0 mi SSW 15.0 mph 21.9 mph N/A   Clear
5:15 PM 80.6 °F 26.6 °F 14% 30.04 in 10.0 mi SSW 15.0 mph 24.2 mph N/A   Clear
5:35 PM 80.6 °F 26.6 °F 14% 30.04 in 10.0 mi SSW 16.1 mph 20.7 mph N/A   Clear
5:55 PM 80.6 °F 26.6 °F 14% 30.03 in 10.0 mi SSW 15.0 mph 25.3 mph N/A   Clear
6:15 PM 78.8 °F 28.4 °F 16% 30.03 in 10.0 mi South 13.8 mph 20.7 mph N/A   Clear
6:35 PM 77.0 °F 28.4 °F 17% 30.03 in 10.0 mi South 11.5 mph 17.3 mph N/A   Clear
6:55 PM 75.2 °F 30.2 °F 19% 30.03 in 10.0 mi South 4.6 mph - N/A   Clear
7:15 PM 73.4 °F 30.2 °F 20% 30.03 in 10.0 mi Calm Calm - N/A   Clear
7:35 PM 71.6 °F 32.0 °F 23% 30.02 in 10.0 mi South 5.8 mph - N/A   Clear
7:55 PM 69.8 °F 33.8 °F 27% 30.03 in 10.0 mi Calm Calm - N/A   Clear
8:15 PM 69.8 °F 35.6 °F 28% 30.03 in 10.0 mi South 5.8 mph - N/A   Clear
8:35 PM 68.0 °F 35.6 °F 30% 30.03 in 10.0 mi South 11.5 mph - N/A   Clear
8:55 PM 66.2 °F 37.4 °F 35% 30.03 in 10.0 mi South 8.1 mph - N/A   Clear
9:15 PM 66.2 °F 37.4 °F 35% 30.02 in 10.0 mi South 10.4 mph - N/A   Clear
9:35 PM 66.2 °F 39.2 °F 37% 30.02 in 10.0 mi South 9.2 mph - N/A   Clear
9:55 PM 66.2 °F 41.0 °F 40% 30.02 in 10.0 mi South 8.1 mph - N/A   Clear
10:15 PM 66.2 °F 41.0 °F 40% 30.02 in 10.0 mi South 12.7 mph - N/A   Clear
10:35 PM 64.4 °F 42.8 °F 45% 30.02 in 10.0 mi South 8.1 mph - N/A   Clear
10:55 PM 64.4 °F 42.8 °F 45% 30.02 in 10.0 mi South 8.1 mph - N/A   Clear
11:15 PM 64.4 °F 42.8 °F 45% 30.01 in 10.0 mi South 12.7 mph 18.4 mph N/A   Clear
11:35 PM 64.4 °F 42.8 °F 45% 30.01 in 10.0 mi South 11.5 mph - N/A   Clear
11:55 PM 62.6 °F 42.8 °F 48% 30.01 in 10.0 mi South 12.7 mph - N/A   Clear